Jordan, MT

10:12 PM MDT on October 23, 2017 (GMT -0600)
Jordan

Weather History for KJDN - December, 2013

Change the Weather History Date:

Tuesday, December 3, 2013

  Actual Average Record
Temperature  
Mean Temperature 12 °F 22 °F  
Max Temperature 19 °F 35 °F 62 °F (1943)
Min Temperature 4 °F 9 °F -22 °F (1905)
Degree Days  
Heating Degree Days 53 43  
Month to date heating degree days 114 127  
Since 1 July heating degree days 2051 2145  
Cooling Degree Days 0 0  
Month to date cooling degree days 0 0  
Year to date cooling degree days 520 421  
Moisture  
Dew Point 7 °F    
Average Humidity 84    
Maximum Humidity 92    
Minimum Humidity 76    
Precipitation  
Precipitation 0.42 in 0.01 in 0.42 in (2013)
Month to date precipitation 0.58 0.03  
Year to date precipitation 16.93 12.41  
Snow  
Snow 0.00 in - - ()
Month to date snowfall  
Since 1 July snowfall 0.0  
Snow Depth 0.00 in    
Sea Level Pressure  
Sea Level Pressure 30.15 in    
Wind  
Wind Speed 15 mph (North)    
Max Wind Speed 25 mph    
Max Gust Speed 29 mph    
T = Trace of Precipitation, MM = Missing Value Source: NWS Daily Summary

Daily Weather History Graph

Daily Weather History Graph

Search for Another Location

Airport or City:

Trip Planner

Search our weather history database for the weather conditions in past years. The results will help you decide how hot, cold, wet, or windy it might be!

Date:

Astronomy

Dec. 03, 2013 Rise Set
Actual Time 7:36 AM MST 4:18 PM MST
Civil Twilight 7:01 AM MST 4:53 PM MST
Nautical Twilight 6:23 AM MST 5:32 PM MST
Astronomical Twilight 5:46 AM MST 6:09 PM MST
Moon 8:07 AM MST (12/3) 5:26 PM MST (12/3)
Length of Visible Light 9h 51m
Length of Day
8h 41m
New Moon, 1% of the Moon is Illuminated
Dec 3
New Moon
Dec 9
First Quarter
Dec 17
Full
Dec 25
Last Quarter
Jan 1
New

Hourly Weather History & Observations

Time (MST) Temp. Windchill Dew Point Humidity Pressure Visibility Wind Dir Wind Speed Gust Speed Precip Events Conditions
12:48 AM 19.0 °F 8.2 °F 15.1 °F 85% 29.93 in - North 9.2 mph - 0.02 in   Unknown
1:48 AM 18.0 °F 8.7 °F 15.1 °F 88% 29.94 in - North 6.9 mph - 0.02 in   Unknown
2:48 AM 18.0 °F 6.1 °F 14.0 °F 84% 29.95 in - NNE 10.4 mph - 0.02 in   Unknown
3:48 AM 18.0 °F 7.7 °F 14.0 °F 84% 29.99 in - North 8.1 mph - 0.02 in   Unknown
4:48 AM 17.1 °F 6.6 °F 14.0 °F 88% 30.01 in - NNE 8.1 mph - 0.05 in   Unknown
5:48 AM 17.1 °F 2.0 °F 12.9 °F 84% 30.02 in - NNE 16.1 mph - 0.02 in   Unknown
6:48 AM 16.0 °F 3.6 °F 12.0 °F 84% 30.05 in - NE 10.4 mph - 0.02 in   Unknown
7:48 AM 14.0 °F -0.8 °F 10.0 °F 84% 30.09 in - NNE 13.8 mph - 0.03 in   Unknown
8:48 AM 14.0 °F 2.0 °F 10.0 °F 84% 30.12 in - NE 9.2 mph - 0.03 in   Unknown
9:48 AM 12.9 °F -1.6 °F 9.0 °F 84% 30.15 in - NNE 12.7 mph - 0.04 in   Unknown
10:48 AM 14.0 °F 2.0 °F 9.0 °F 80% 30.15 in - NNE 9.2 mph - 0.03 in   Unknown
11:48 AM 14.0 °F -0.2 °F 9.0 °F 80% 30.15 in - NNE 12.7 mph - 0.02 in   Unknown
12:48 PM 12.0 °F -6.0 °F 8.1 °F 84% 30.15 in - North 19.6 mph - 0.02 in   Unknown
1:48 PM 12.0 °F -5.1 °F 6.1 °F 77% 30.17 in - North 17.3 mph - 0.01 in   Unknown
2:48 PM 10.0 °F -8.6 °F 5.0 °F 80% 30.19 in - NNW 19.6 mph - 0.01 in   Unknown
3:48 PM 9.0 °F -10.5 °F 3.9 °F 80% 30.21 in - North 20.7 mph - 0.01 in   Unknown
4:48 PM 8.1 °F -11.2 °F 3.0 °F 80% 30.23 in - North 19.6 mph - 0.01 in   Unknown
5:48 PM 8.1 °F -12.6 °F 3.0 °F 80% 30.24 in - North 23.0 mph - 0.01 in   Unknown
6:48 PM 8.1 °F -11.7 °F 3.0 °F 80% 30.27 in - North 20.7 mph 28.8 mph 0.01 in   Unknown
7:48 PM 7.0 °F -13.1 °F 1.9 °F 80% 30.29 in - NNW 20.7 mph - N/A   Unknown
8:48 PM 7.0 °F -12.1 °F 1.0 °F 77% 30.31 in - North 18.4 mph - N/A   Unknown
9:48 PM 6.1 °F -10.2 °F 1.0 °F 80% 30.33 in - NNW 12.7 mph - N/A   Unknown
10:48 PM 3.9 °F -13.0 °F -0.9 °F 80% 30.33 in - NW 12.7 mph - 0.01 in   Unknown
11:48 PM 3.9 °F -15.0 °F -0.9 °F 80% 30.32 in - NW 16.1 mph - 0.01 in   Unknown